Dewpoint
74 69 68 70 66 69 66 67 71 72 72 72 72 72 73 71 70 71 70 72 73 67
72 72 69 71 73 69 72 69 73 73 73 73 72 73 73 71 71 72 72 70 72 70
70 72 72 74 72 72 72 73 74 72 72 73 73 74 75 71 72 73 70 67 70 72
68 69 71 71 74 72 73 73 73 73 72 73 73 73 75 74 72 72 73 73 72 72
69 70 69 71 71 72 73 73 73 73 73 73 73 73 74 73 71 71 71 71 72 72
69 69 69 69 71 72 73 73 72 73 73 72 71 72 73 74 72 72 71 71 71 71
69 68 68 70 71 71 72 73 73 73 72 71 71 71 71 72 73 72 71 72 72 71
71 72 71 71 72 72 72 72 73 73 73 72 71 69 71 72 73 73 72 71 72 70
72 73 72 74 74 74 74 74 74 73 73 72 68 66 67 70 71 72 73 73 73 72
73 73 73 74 73 73 74 74 74 74 73 72 72 62 62 63 69 70 71 72 73 71
73 72 73 73 73 73 72 71 71 73 72 73 73 60 59 61 68 69 71 72 72 73
71 71 72 71 71 73 73 70 70 70 72 71 71 59 59 63 69 68 69 68 66 70
69 69 69 69 70 71 71 70 70 70 69 63 66 58 57 62 65 67 63 64 60 55
69 70 70 71 70 70 69 68 65 61 60 60 58 58 55 56 63 65 63 62 60 55
Lifted_Index
-4 -3 -3 -3 -3 -4 -4 -4 -4 -5 -5 -5 -5 -5 -5 -5 -5 -5 -5 -5 -5 -5
-4 -4 -4 -4 -4 -4 -4 -4 -4 -5 -5 -5 -5 -5 -5 -5 -5 -4 -4 -4 -4 -4
-3 -4 -4 -4 -4 -4 -4 -4 -4 -4 -4 -5 -5 -5 -5 -4 -4 -4 -4 -4 -4 -4
-3 -3 -4 -4 -4 -4 -4 -4 -4 -4 -4 -5 -5 -5 -5 -4 -4 -4 -4 -3 -3 -4
-2 -3 -3 -3 -4 -4 -4 -5 -4 -4 -4 -4 -4 -4 -4 -4 -4 -4 -4 -3 -3 -3
-2 -2 -2 -2 -3 -3 -4 -4 -4 -4 -4 -4 -3 -4 -4 -4 -4 -4 -4 -3 -3 -3
-2 -2 -2 -2 -2 -3 -3 -3 -4 -4 -3 -3 -3 -3 -4 -4 -4 -4 -4 -4 -4 -3
-3 -2 -2 -2 -2 -3 -3 -3 -3 -4 -3 -3 -3 -3 -3 -3 -4 -4 -4 -4 -4 -3
-3 -3 -3 -3 -3 -3 -3 -3 -4 -4 -3 -3 -3 -2 -2 -2 -3 -3 -4 -4 -4 -3
-3 -3 -4 -4 -3 -3 -3 -3 -3 -3 -3 -3 -3 -2 -1 -1 -2 -2 -3 -3 -3 -3
-4 -4 -4 -4 -3 -3 -2 -2 -2 -2 -2 -3 -2 -2 -1 -1 -1 -1 -2 -2 -2 -2
-3 -3 -3 -2 -2 -2 -2 -1 -1 -1 -1 -2 -1 -1 -0 -0 -0 0 -0 -0 -0 -1
-2 -2 -2 -1 -1 -1 -1 -1 -0 -0 -0 -1 -0 0 0 0 0 1 1 1 1 1
-2 -2 -2 -1 -1 -1 -1 -0 -0 -0 -0 0 1 1 1 1 1 1 1 2 2 2